Location: Baumgarten
(49.0970°N, 12.7493°E)
Time: 18:47:45
(UTC+00:00)

Nadezhda 3 Rocket - Pass Details

Date: 05 July 2020
Orbit: 957 x 1000 km, 82.9° (Epoch: 12 August)

Event Time Altitude Azimuth Distance (km) Brightness Sun altitude
Rises 21:15:53 0° 352° (N) 3,736 8.5 -13.6°
Reaches altitude 10° 21:18:28 10° 356° (N) 2,781 7.5 -13.8°
Maximum altitude 21:24:48 60° 77° (ENE) 1,130 4.3 -14.2°
Enters shadow 21:29:10 21° 151° (SSE) 2,087 5.1 -14.5°
